星链-36499(STARLINK-36499)

导读

STARLINK-36499是美国太空探索技术公司SpaceX星链(Starlink)卫星星座的成员,于2026年1月9日成功发射。星链项目旨在构建全球覆盖的低轨卫星互联网,为偏远、网络基础设施匮乏地区提供高速宽带服务。作为巨型星座组网的一部分,STARLINK-36499将依托近地轨道优势,降低信号延迟,进一步补充完善全球卫星互联网覆盖网络,推动星链星座通信能力升级,服务全球用户的互联网接入需求。

Basic Information
目录编号:
67359
目录名称:
STARLINK-36499
国际标识:
2026-003AB
轨道中心:
EARTH
卫星名称:
星链-36499
卫星全名:
星链-36499(STARLINK-36499)
卫星状态:
在轨 (已飞行245 天)
发射日期:
2026-01-09 UTC
国别 :
美国 (US)
星等 :
--
This satellite is enrolled in the Space Conjunction Data Service (SCDS) and the current flight risk assessment level is: No High Risk
Orbit Information
数据来源 国际轨道数据
星历时间: 2026-09-11T08:36:00+0800
18小时前
查看轨道信息
半长轴: 6861.152km
偏心率: 0.0001707
轨道倾角: 42.993°
近地点辐角 197.344°
升交点赤经 260.806°
平近点角 162.735°
近地点: 481.843km
远地点: 484.187km
周期: 94.266分钟
每日圈数: 15.275916
Detailed Information
固有亮度:
5
最大亮度:
2.5
卫星平台:
Starlink V1.0
覆盖范围:
全球
运营商:
太空探索技术公司
运营商所在国:
美国
制造商(研发单位):
太空探索技术公司
制造商所在国:
美国
使用方式:
暂无
Satellite Introduction
Starlink 计划是 SpaceX 推出的全球卫星互联网项目,通过发射低轨道卫星,为全球尤其是偏远地区提供高速、低延迟的互联网服务。自 2019 年起,Starlink 已部署数千颗卫星,旨在缩小全球数字鸿沟,推动互联网普及。该项目还为军事、航空等行业提供通信支持,带来广泛经济效益。
2D Orbit Map
3D Orbit Map
Orbit Altitude Analysis Chart
Orbit Inclination Analysis Chart
Orbit Comprehensive Analysis Chart
View Comprehensive Chart
Conjunction Data List
Event ID Objects TCA Miss Dist (km) Collision Risk Probability Collision Risk Index (CRI) Action
CDM_260912-205206-729706-735922
2026-09-12T
20:52:30+0000
0.663 km
远距离
8.059202E-5 中风险 0.73
CDM_260913-195005-537106-735921
2026-09-13T
19:50:57+0000
0.881 km
远距离
2.614412E-5 中风险 0.63
CDM_260912-100706-732806-735921
2026-09-12T
10:07:12+0000
0.909 km
远距离
2.402599E-5 中风险 0.63
CDM_260913-080405-537106-735921
2026-09-13T
08:04:48+0000
1.159 km
极远距离
1.017307E-5 中风险 0.55
CDM_260913-063005-537106-735921
2026-09-13T
06:30:39+0000
1.367 km
极远距离
5.791074E-6 低风险 0.5
CDM_260913-181605-537106-735921
2026-09-13T
18:16:48+0000
1.390 km
极远距离
5.466411E-6 低风险 0.5
CDM_260911-173806-732806-735921
2026-09-11T
17:38:37+0000
1.450 km
极远距离
4.873648E-6 低风险 0.49
CDM_260912-083306-732806-735921
2026-09-12T
08:33:03+0000
1.772 km
极远距离
2.645425E-6 低风险 0.43
CDM_260911-160406-732806-735921
2026-09-11T
16:04:28+0000
1.821 km
极远距离
2.451106E-6 低风险 0.43
CDM_260912-114106-732806-735921
2026-09-12T
11:41:21+0000
2.338 km
极远距离
1.3664E-6 低风险 0.38
Miss Distance Evolution Trend with All Objects
Collision Probability Evolution Trend with All Objects